Fayetteville, GA

12:36 PM EDT on August 24, 2016 (GMT -0400)
Peachtree City-Falcon

Weather History for KFFC - August, 2013

Change the Weather History Date:

Saturday, August 24, 2013

  Actual Average Record
Temperature  
Mean Temperature 77 °F 78 °F  
Max Temperature 85 °F 89 °F 95 °F (2002)
Min Temperature 68 °F 67 °F 55 °F (1997)
Degree Days  
Heating Degree Days 0 0  
Month to date heating degree days 0 0  
Since 1 June heating degree days 0 1  
Since 1 July heating degree days 0 0  
Cooling Degree Days 12 13  
Month to date cooling degree days 298 332  
Year to date cooling degree days 1181 1292  
Since 1 June cooling degree days 1035 1102  
Growing Degree Days 26 (Base 50)    
Moisture  
Dew Point 69 °F    
Average Humidity 81    
Maximum Humidity 100    
Minimum Humidity 61    
Precipitation  
Precipitation 0.00 in 0.16 in 1.60 in (2008)
Month to date precipitation 2.90 3.29  
Year to date precipitation 25.87 33.70  
Snow  
Snow 0.00 in - - ()
Month to date snowfall 0.0  
Since 1 June snowfall 0.0  
Since 1 July snowfall 0.0  
Snow Depth 0.00 in    
Sea Level Pressure  
Sea Level Pressure 30.16 in    
Wind  
Wind Speed 5 mph (East)    
Max Wind Speed 13 mph    
Max Gust Speed 18 mph    
Visibility 10 miles    
Events      
T = Trace of Precipitation, MM = Missing Value Source: NWS Daily Summary

Daily Weather History Graph

Daily Weather History Graph

Search for Another Location

Airport or City:

Trip Planner

Search our weather history database for the weather conditions in past years. The results will help you decide how hot, cold, wet, or windy it might be!

Date:

Astronomy

Aug. 24, 2013 Rise Set
Actual Time 7:07 AM EDT 8:13 PM EDT
Civil Twilight 6:41 AM EDT 8:38 PM EDT
Nautical Twilight 6:10 AM EDT 9:09 PM EDT
Astronomical Twilight 5:39 AM EDT 9:40 PM EDT
Moon 10:23 PM EDT 10:50 AM EDT
Length of Visible Light 13h 57m
Length of Day
13h 06m
Waning Gibbous, 84% of the Moon is Illuminated
Aug 24
Waning Gibbous
Aug 28
Last Quarter
Sep 5
New
Sep 12
First Quarter
Sep 19
Full

Hourly Weather History & Observations

Time (EDT) Temp. Heat Index Dew Point Humidity Pressure Visibility Wind Dir Wind Speed Gust Speed Precip Events Conditions
12:53 AM 72.0 °F - 70.0 °F 93% 30.07 in 10.0 mi Calm Calm - N/A   Clear
1:53 AM 71.1 °F - 70.0 °F 96% 30.05 in 9.0 mi SW 3.5 mph - N/A   Partly Cloudy
2:53 AM 71.1 °F - 69.1 °F 93% 30.04 in 10.0 mi Calm Calm - N/A   Clear
3:53 AM 70.0 °F - 69.1 °F 97% 30.06 in 9.0 mi Calm Calm - N/A   Clear
4:53 AM 70.0 °F - 69.1 °F 97% 30.08 in 9.0 mi SE 4.6 mph - N/A   Clear
5:53 AM 70.0 °F - 69.1 °F 97% 30.09 in 10.0 mi Calm Calm - N/A   Overcast
6:06 AM 69.8 °F - 69.8 °F 100% 30.12 in 9.0 mi Calm Calm - N/A   Mostly Cloudy
6:53 AM 70.0 °F - 69.1 °F 97% 30.12 in 9.0 mi Calm Calm - N/A   Mostly Cloudy
7:53 AM 72.0 °F - 70.0 °F 93% 30.14 in 9.0 mi NE 3.5 mph - N/A   Overcast
8:53 AM 73.9 °F - 70.0 °F 87% 30.15 in 9.0 mi ENE 6.9 mph - N/A   Mostly Cloudy
9:22 AM 75.2 °F - 69.8 °F 83% 30.17 in 10.0 mi Variable 3.5 mph - N/A   Mostly Cloudy
9:53 AM 73.9 °F - 69.1 °F 85% 30.17 in 10.0 mi ENE 8.1 mph - N/A   Overcast
10:53 AM 77.0 °F - 69.1 °F 76% 30.18 in 10.0 mi ENE 5.8 mph - N/A   Overcast
11:03 AM 75.2 °F - 68.0 °F 78% 30.20 in 9.0 mi ENE 10.4 mph 17.3 mph N/A   Overcast
11:33 AM 78.8 °F - 69.8 °F 74% 30.20 in 10.0 mi East 10.4 mph - N/A   Scattered Clouds
11:48 AM 78.8 °F - 69.8 °F 74% 30.21 in 10.0 mi ESE 6.9 mph - N/A   Mostly Cloudy
11:53 AM 80.1 °F 82.9 °F 69.1 °F 69% 30.19 in 10.0 mi East 6.9 mph - N/A   Mostly Cloudy
12:08 PM 80.6 °F 83.9 °F 69.8 °F 70% 30.21 in 10.0 mi East 8.1 mph - N/A   Scattered Clouds
12:44 PM 80.6 °F 83.9 °F 69.8 °F 70% 30.20 in 10.0 mi East 10.4 mph - N/A   Mostly Cloudy
12:53 PM 81.0 °F 84.1 °F 69.1 °F 67% 30.19 in 10.0 mi ESE 9.2 mph - N/A   Mostly Cloudy
1:01 PM 80.6 °F 83.9 °F 69.8 °F 70% 30.20 in 10.0 mi East 8.1 mph - N/A   Scattered Clouds
1:32 PM 82.4 °F 86.3 °F 69.8 °F 66% 30.20 in 10.0 mi Variable 6.9 mph - N/A   Mostly Cloudy
1:53 PM 82.0 °F 85.9 °F 70.0 °F 67% 30.18 in 10.0 mi Variable 6.9 mph - N/A   Mostly Cloudy
2:53 PM 84.0 °F 88.4 °F 70.0 °F 63% 30.18 in 10.0 mi East 9.2 mph - N/A   Scattered Clouds
3:53 PM 82.9 °F 86.5 °F 69.1 °F 63% 30.17 in 10.0 mi ESE 8.1 mph - N/A   Mostly Cloudy
4:53 PM 82.9 °F 87.0 °F 70.0 °F 65% 30.16 in 10.0 mi ESE 6.9 mph - N/A   Mostly Cloudy
5:53 PM 84.0 °F 88.4 °F 70.0 °F 63% 30.15 in 10.0 mi East 9.2 mph - N/A   Scattered Clouds
6:53 PM 81.0 °F 84.1 °F 69.1 °F 67% 30.15 in 10.0 mi East 9.2 mph - N/A   Scattered Clouds
7:53 PM 78.1 °F - 70.0 °F 76% 30.17 in 10.0 mi East 5.8 mph - N/A   Clear
8:53 PM 75.0 °F - 69.1 °F 82% 30.19 in 10.0 mi East 9.2 mph - N/A   Clear
9:53 PM 73.9 °F - 66.9 °F 79% 30.22 in 10.0 mi East 6.9 mph - N/A   Partly Cloudy
10:53 PM 72.0 °F - 66.9 °F 84% 30.24 in 10.0 mi East 3.5 mph - N/A   Clear
11:53 PM 70.0 °F - 66.9 °F 90% 30.25 in 9.0 mi Calm Calm - N/A   Clear